Retour au catalogue

GEESAT 2-10

ActifScienceLEO
NORAD 58914·PAYLOAD·🇨🇳 China

Lancé Feb 2, 2024 depuis Xichang Satellite Launch Center

Loading…

Prochains Passages (prochaines 24 heures)

TLE

FraisSource: Space-Track

Époque: Sep 14, 2026, 14:18 UTC

1 58914U 24023K   26257.59650938  .00000936  00000-0  14024-3 0  9997
2 58914  49.9949 299.7977 0009646 336.4343  23.6152 14.83403729142180

Suivez GEESAT 2-10 en temps réel avec AllMySat

Download on the App Store